CZ-4B R/B (44888 NORAD) Tracking and Keplerian Element Data

This shows tracking and keplerian element data for the satellite.

Feedback or suggestion? Click here.




ElementValue
Catalog44888
NameCZ-4B R/B
Epoch Orbit434
Epoch Day17.86147294
Epoch Year2020
RAAN95.7683
Inclination97.8799
Eccentricity0.0122964
Argument of Perigee283.3991
Mean Anonmoly75.3543
Mean Motion15.10909032
Decay Rate6.79E-06
L11 44888U 19093K 20017.86147294 .00000679 00000-0 38370-4 0 9992
L22 44888 97.8799 95.7683 0122964 283.3991 75.3543 15.10909032 4348

Live tracking and technical data element details for CZ-4B R/B (NORAD 44888). CZ-4B R/B can be tracked NOW for your location showing map with azimuth and elevation plus other details from your city location.

Track the satellite on the map from your city or location and see movement details for azimuth, elevation, latitude, longitude, range, height, and movement on the map or in text.







IsCatalogInMostPopularTable: catalog: 44888, numindb: 35
Update: records affected: 1



GetName: 44888 CZ-4B R/B

Hit Count: updated at: Fri, 03 Apr 2020 23:05:41 GMT